Find Starlink 32380

NORAD ID: 61069 Int'l Des: 2024-164 Owner: SPXS Country: US Constellation: starlink operational
LEOCIRCULAR

Current View

Loading 3D Globe...

About Starlink 32380

Starlink 32380 (NORAD 61069) is a starlink constellation satellite (v2 mini) launched Sep 13, 2024 by SPXS of US. It operates in LEO, CIRCULAR orbit with a mass of 730.00 kg.

About Starlink 32380

Description loading...

Upcoming Passes

Passes for default location (London). Set your location on the main map for personalized predictions.

Altitude History

Loading altitude history...

Two-Line Element Set

1 61069U 24164V 26171.17812585 .00000448 00000-0 26182-4 0 9992
2 61069 53.1625 334.7465 0001174 85.9059 274.2077 15.31704882 99171
Epoch: Jun 20, 2026 • Age: 53 hours

Current Status

Altitude 474.6 km
Velocity 7.63 km/s
Sub-Earth Point -13.68°S, 112.31°E
Launch Date Sep 13, 2024
Age 1.7 years
Type internet

Technical Details

Classification Payload
Mass 730.00 kg
Dry Mass 700.00 kg
Total Mass 730.00 kg
Length 0.30 m
Diameter 4.10 m
Span 29.00 m
Shape Box + pan
Manufacturer SPXS
Bus Type Starlink V2M
Phase Status In Orbit
Owner/State SPXS/US

Most Searched